Location: �perlecques
(50.8057°N, 2.1521°E)
Time: 17:42:12
(UTC+00:00)

Transit 2A Rocket - All Passes

Search period start: 28 July 2021 00:00
Search period end: 07 August 2021 00:00
Orbit: 589 x 913 km, 66.7° (Epoch: 28 July)

Date Brightness Start Highest point End Pass type
(mag) Time Alt. Az. Time Alt. Az. Time Alt. Az.
28 Jul - 00:20:39 10° NW 00:25:37 36° WSW 00:30:55 10° S visible
28 Jul - 14:59:58 10° SSW 15:04:22 60° ESE 15:09:08 10° NE daylight
28 Jul - 16:43:15 10° W 16:47:18 29° NW 16:51:40 10° NNE daylight
28 Jul - 18:28:54 10° NW 18:31:33 14° N 18:34:19 10° NNE daylight
28 Jul - 20:13:03 10° NNW 20:16:15 16° NNE 20:19:37 10° NE visible
28 Jul - 21:55:20 10° NNW 22:00:16 38° NE 22:05:36 10° ESE visible
28 Jul - 23:37:48 10° NW 23:43:07 56° WSW 23:48:49 10° SSE visible
29 Jul - 01:23:38 10° W 01:24:45 11° WSW 01:25:51 10° WSW visible
29 Jul - 14:17:50 10° S 14:21:54 36° ESE 14:26:16 10° NE daylight
29 Jul - 16:00:04 10° WSW 16:04:24 41° NW 16:09:07 10° NNE daylight
29 Jul - 17:45:20 10° NW 17:48:21 16° NNW 17:51:32 10° NNE daylight
29 Jul - 19:30:16 10° NNW 19:33:03 14° N 19:35:57 10° NE daylight
29 Jul - 21:12:47 10° NNW 21:17:21 28° NE 21:22:13 10° E visible
29 Jul - 22:55:05 10° NW 23:00:31 84° SW 23:06:24 10° SSE visible
30 Jul - 00:38:52 10° WNW 00:42:29 18° WSW 00:46:15 10° SSW visible
30 Jul - 13:36:08 10° SSE 13:39:33 22° ESE 13:43:08 10° ENE daylight
30 Jul - 15:17:08 10° SW 15:21:36 63° NW 15:26:30 10° NNE daylight
30 Jul - 17:01:45 10° WNW 17:05:12 19° NNW 17:08:53 10° NNE daylight
30 Jul - 18:47:15 10° NNW 18:49:49 14° N 18:52:27 10° NNE daylight
30 Jul - 20:30:14 10° NNW 20:34:19 22° NNE 20:38:40 10° ENE visible
30 Jul - 22:12:27 10° NW 22:17:50 68° NE 22:23:39 10° SE visible
30 Jul - 23:55:31 10° NW 00:00:09 28° WSW 00:05:01 10° SSW visible
31 Jul - 12:55:20 10° SE 12:57:18 13° ESE 12:59:19 10° ENE daylight
31 Jul - 14:34:27 10° SSW 14:38:56 83° SE 14:43:51 10° NE daylight
31 Jul - 16:18:17 10° W 16:22:08 25° NNW 16:26:17 10° NNE daylight
31 Jul - 18:03:59 10° NW 18:06:33 14° N 18:09:14 10° NNE daylight
31 Jul - 19:47:38 10° NNW 19:51:13 18° NNE 19:55:00 10° ENE daylight
31 Jul - 21:29:52 10° NNW 21:35:03 47° NE 21:40:39 10° ESE visible
31 Jul - 23:12:31 10° NW 23:17:41 42° WSW 23:23:12 10° S visible
01 Aug - 13:52:03 10° SSW 13:56:23 50° ESE 14:01:05 10° NE daylight
01 Aug - 15:34:58 10° WSW 15:39:10 33° NW 15:43:43 10° NNE daylight
01 Aug - 17:20:30 10° NW 17:23:20 15° NNW 17:26:18 10° NNE daylight
01 Aug - 19:04:57 10° NNW 19:08:03 16° NNE 19:11:18 10° NE daylight
01 Aug - 20:47:19 10° NNW 20:52:11 34° NE 20:57:24 10° ESE visible
01 Aug - 22:29:43 10° NW 22:35:09 65° WSW 22:40:58 10° SSE visible
02 Aug - 00:14:25 10° WNW 00:16:54 13° WSW 00:19:27 10° SW visible
02 Aug - 13:10:03 10° S 13:13:57 30° ESE 13:18:08 10° NE daylight
02 Aug - 14:51:53 10° WSW 14:56:18 48° NW 15:01:08 10° NNE daylight
02 Aug - 16:36:55 10° WNW 16:40:09 17° NNW 16:43:33 10° NNE daylight
02 Aug - 18:22:05 10° NNW 18:24:49 14° N 18:27:41 10° NE daylight
02 Aug - 20:04:46 10° NNW 20:09:13 26° NNE 20:13:57 10° E visible
02 Aug - 21:47:02 10° NW 21:52:31 86° NE 21:58:25 10° SE visible
02 Aug - 23:30:31 10° WNW 23:34:37 21° WSW 23:38:53 10° SSW visible
03 Aug - 12:28:35 10° SSE 12:31:38 18° ESE 12:34:52 10° ENE daylight
03 Aug - 14:09:01 10° SW 14:13:32 74° NW 14:18:30 10° NE daylight
03 Aug - 15:53:22 10° WNW 15:57:01 21° NNW 16:00:55 10° NNE daylight
03 Aug - 17:38:59 10° NNW 17:41:34 14° N 17:44:16 10° NNE daylight
03 Aug - 19:22:12 10° NNW 19:26:10 21° NNE 19:30:21 10° ENE daylight
03 Aug - 21:04:25 10° NNW 21:09:48 59° NE 21:15:35 10° SE visible
03 Aug - 22:47:19 10° NW 22:52:13 32° WSW 22:57:24 10° S visible
04 Aug - 11:48:44 10° ESE 11:49:26 10° ESE 11:50:09 10° E daylight
04 Aug - 13:26:26 10° SSW 13:30:54 70° ESE 13:35:49 10° NE daylight
04 Aug - 15:09:57 10° W 15:13:58 28° NNW 15:18:20 10° NNE daylight
04 Aug - 16:55:37 10° NW 16:58:20 14° N 17:01:09 10° NNE daylight
04 Aug - 18:39:34 10° NNW 18:43:02 17° NNE 18:46:40 10° ENE daylight
04 Aug - 20:21:51 10° NNW 20:26:59 42° NE 20:32:29 10° ESE visible
04 Aug - 22:04:25 10° NW 22:09:44 50° WSW 22:15:25 10° SSE visible
05 Aug - 12:44:10 10° S 12:48:25 42° ESE 12:53:00 10° NE daylight
05 Aug - 14:26:44 10° WSW 14:31:03 38° NW 14:35:46 10° NNE daylight
05 Aug - 16:12:05 10° NW 16:15:07 16° NNW 16:18:17 10° NNE daylight
05 Aug - 17:56:49 10° NNW 17:59:50 15° NNE 18:02:59 10° NE daylight
05 Aug - 19:39:18 10° NNW 19:44:05 31° NE 19:49:10 10° E daylight
05 Aug - 21:21:40 10° NW 21:27:10 75° SW 21:33:05 10° SSE visible
05 Aug - 23:05:46 10° WNW 23:09:02 16° WSW 23:12:24 10° SW visible
06 Aug - 12:02:20 10° SSE 12:06:01 25° ESE 12:09:59 10° ENE daylight
06 Aug - 13:43:42 10° SW 13:48:13 56° NW 13:53:10 10° NNE daylight
06 Aug - 15:28:30 10° WNW 15:31:57 19° NNW 15:35:35 10° NNE daylight
06 Aug - 17:13:52 10° NNW 17:16:35 14° N 17:19:26 10° NE daylight
06 Aug - 18:56:44 10° NNW 19:01:04 24° NNE 19:05:40 10° E daylight
06 Aug - 20:39:00 10° NW 20:44:30 75° NE 20:50:25 10° SE visible
06 Aug - 22:22:14 10° WNW 22:26:42 25° WSW 22:31:24 10° SSW visible
